Find Starlink 32241

NORAD ID: 60437 Int'l Des: 2024-144 Owner: SPXS Country: US Constellation: starlink operational
LEOCIRCULAR

实时位置

正在加载3D地球...

关于 Starlink 32241

正在加载描述...

即将过境

Passes for default location (London). Set your location on the main map for personalized predictions.

高度历史

Loading altitude history...

两行轨道根数

1 60437U 24144N 26123.90048179 .00009374 00000-0 32762-3 0 9993
2 60437 53.1614 320.5780 0001389 129.8278 230.2845 15.30260653 97769
Epoch: May 3, 2026 • Age: 9 hours

当前状态

高度 492.6 km
速度 7.62 km/s
星下点 -48.63°S, 61.85°W
发射日期 Aug 12, 2024
运行时间 1.7 years
类型 internet

技术详情

分类 Payload
质量 730.00 kg
干质量 700.00 kg
总质量 730.00 kg
长度 0.30 m
直径 4.10 m
跨度 29.00 m
形状 Box + pan
制造商 SPXS
平台类型 Starlink V2M
阶段状态 In Orbit
所有者/国家 SPXS/US

Most Searched